Location: Seven Kings
(51.5667°N, 0.1000°E)
Time: 11:48:12
(UTC+00:00)

Cosmos 968 Rocket - Pass Details

Date: 29 October 2020
Orbit: 741 x 770 km, 74.0° (Epoch: 24 November)

Event Time Altitude Azimuth Distance (km) Brightness Sun altitude
Rises 18:15:23 0° 332° (NNW) 3,243 7.1 -15.7°
Reaches altitude 10° 18:17:48 10° 329° (NNW) 2,309 6.4 -16.1°
Maximum altitude 18:22:57 60° 251° (WSW) 868 4.0 -16.9°
Drops below altitude 10° 18:28:01 10° 172° (S) 2,273 5.9 -17.7°
Sets 18:30:22 0° 169° (S) 3,188 6.6 -18.0°
